Back to catalog

ATLAS 5 CENTAUR DEB

LostHEO
NORAD 49365·DEBRIS·🇺🇸 United States

Launched Oct 17, 2018 from Cape Canaveral Space Force Station

Loading…

Next Passes (next 24 hours)

TLE

StaleSource: Space-Track

Epoch: Feb 24, 2022, 03:24 UTC

1 49365U 18079FS  22055.14197028 -.00000029  00000-0  00000+0 0  9999
2 49365  11.1665 164.2748 4525274  70.9632 331.6608  1.92907354  3962

Track ATLAS 5 CENTAUR DEB in real time with AllMySat

Download on the App Store